| time (UTC) | temp C | wind direction | speed KPH | gust KPH | rain 1hr cm | rain 24hr cm | rain mn cm | humidity % | barometer mb |
| 20260510190558 | 27 | 0 | 0.0 | 1.6 | 0.00 | 0.03 | 0.00 | 46 | 1012.4 |
| 20260510185557 | 26 | 0 | 0.0 | 1.6 | 0.00 | 0.03 | 0.00 | 46 | 1012.6 |
| 20260510185058 | 27 | 0 | 0.0 | 1.6 | 0.00 | 0.03 | 0.00 | 45 | 1012.8 |
| 20260510184559 | 27 | 0 | 0.0 | 1.6 | 0.00 | 0.03 | 0.00 | 43 | 1012.8 |
| 20260510184101 | 27 | 0 | 0.0 | 1.6 | 0.00 | 0.03 | 0.00 | 41 | 1012.7 |
| 20260510183558 | 27 | 0 | 0.0 | 1.6 | 0.00 | 0.03 | 0.00 | 39 | 1012.6 |
| 20260510183109 | 27 | 0 | 0.0 | 1.6 | 0.00 | 0.03 | 0.00 | 41 | 1012.7 |
| 20260510182558 | 27 | 0 | 0.0 | 4.8 | 0.00 | 0.03 | 0.00 | 41 | 1012.7 |
| 20260510182058 | 27 | 0 | 0.0 | 4.8 | 0.00 | 0.03 | 0.00 | 40 | 1012.8 |
| 20260510181610 | 27 | 0 | 0.0 | 1.6 | 0.00 | 0.03 | 0.00 | 42 | 1012.8 |
| 20260510181059 | 27 | 0 | 0.0 | 0.0 | 0.00 | 0.03 | 0.00 | 41 | 1012.9 |
| 20260510180558 | 27 | 0 | 0.0 | 0.0 | 0.00 | 0.03 | 0.00 | 40 | 1012.9 |
| 20260510180112 | 27 | 0 | 0.0 | 1.6 | 0.00 | 0.03 | 0.00 | 40 | 1013.0 |
| 20260510175557 | 27 | 0 | 0.0 | 1.6 | 0.00 | 0.03 | 0.00 | 40 | 1013.0 |
| 20260510175057 | 27 | 0 | 0.0 | 0.0 | 0.00 | 0.03 | 0.00 | 41 | 1013.1 |
| 20260510174610 | 27 | 0 | 0.0 | 0.0 | 0.00 | 0.03 | 0.00 | 42 | 1012.9 |
| 20260510174058 | 27 | 0 | 0.0 | 1.6 | 0.00 | 0.03 | 0.00 | 43 | 1013.1 |
| 20260510173558 | 27 | 0 | 0.0 | 1.6 | 0.00 | 0.03 | 0.00 | 41 | 1013.1 |
| 20260510173107 | 27 | 0 | 0.0 | 1.6 | 0.00 | 0.03 | 0.00 | 42 | 1013.0 |
| 20260510172558 | 27 | 0 | 0.0 | 0.0 | 0.00 | 0.03 | 0.00 | 43 | 1013.0 |
| 20260510172058 | 27 | 0 | 0.0 | 0.0 | 0.00 | 0.03 | 0.00 | 43 | 1013.0 |
| 20260510171603 | 27 | 0 | 0.0 | 3.2 | 0.00 | 0.03 | 0.00 | 41 | 1013.0 |
| 20260510171059 | 27 | 0 | 0.0 | 3.2 | 0.00 | 0.03 | 0.00 | 45 | 1013.0 |
| 20260510170558 | 26 | 0 | 0.0 | 1.6 | 0.00 | 0.03 | 0.00 | 45 | 1013.1 |
| 20260510170056 | 26 | 0 | 0.0 | 3.2 | 0.00 | 0.03 | 0.00 | 46 | 1013.1 |
| 20260510165558 | 26 | 0 | 0.0 | 3.2 | 0.00 | 0.03 | 0.00 | 44 | 1013.2 |
| 20260510165058 | 26 | 0 | 0.0 | 3.2 | 0.00 | 0.03 | 0.00 | 48 | 1013.3 |
| 20260510164606 | 26 | 149 | 0.0 | 1.6 | 0.00 | 0.03 | 0.00 | 48 | 1013.3 |
| 20260510164058 | 26 | 0 | 0.0 | 0.0 | 0.00 | 0.03 | 0.00 | 48 | 1013.1 |
| 20260510163558 | 25 | 0 | 0.0 | 0.0 | 0.00 | 0.03 | 0.00 | 48 | 1013.3 |
| 20260510163100 | 26 | 0 | 0.0 | 0.0 | 0.00 | 0.03 | 0.00 | 47 | 1013.3 |
| 20260510162559 | 25 | 0 | 0.0 | 0.0 | 0.00 | 0.03 | 0.00 | 50 | 1013.4 |
| 20260510162057 | 25 | 0 | 0.0 | 0.0 | 0.00 | 0.03 | 0.00 | 49 | 1013.4 |
| 20260510161600 | 26 | 0 | 0.0 | 0.0 | 0.00 | 0.03 | 0.00 | 48 | 1013.5 |
| 20260510161058 | 26 | 0 | 0.0 | 0.0 | 0.00 | 0.03 | 0.00 | 49 | 1013.4 |
| 20260510160557 | 25 | 0 | 0.0 | 0.0 | 0.00 | 0.03 | 0.00 | 49 | 1013.4 |
| 20260510160059 | 25 | 0 | 0.0 | 0.0 | 0.00 | 0.03 | 0.00 | 51 | 1013.5 |
| 20260510155558 | 25 | 0 | 0.0 | 0.0 | 0.00 | 0.03 | 0.00 | 50 | 1013.5 |
| 20260510155058 | 25 | 0 | 0.0 | 0.0 | 0.00 | 0.03 | 0.00 | 50 | 1013.5 |
| 20260510154601 | 25 | 0 | 0.0 | 0.0 | 0.00 | 0.03 | 0.00 | 53 | 1013.5 |
| 20260510154057 | 25 | 0 | 0.0 | 0.0 | 0.00 | 0.03 | 0.00 | 52 | 1013.6 |
| 20260510153558 | 24 | 0 | 0.0 | 0.0 | 0.00 | 0.03 | 0.00 | 53 | 1013.4 |
| 20260510153101 | 24 | 0 | 0.0 | 1.6 | 0.00 | 0.03 | 0.00 | 53 | 1013.5 |
| 20260510152558 | 24 | 0 | 0.0 | 1.6 | 0.00 | 0.03 | 0.00 | 52 | 1013.5 |
| 20260510152058 | 23 | 0 | 0.0 | 0.0 | 0.00 | 0.03 | 0.00 | 55 | 1013.6 |
| 20260510151603 | 23 | 0 | 0.0 | 0.0 | 0.00 | 0.03 | 0.00 | 55 | 1013.5 |
| 20260510151058 | 23 | 0 | 0.0 | 0.0 | 0.00 | 0.03 | 0.00 | 56 | 1013.5 |
| 20260510150558 | 23 | 0 | 0.0 | 1.6 | 0.00 | 0.03 | 0.00 | 57 | 1013.4 |
| 20260510150108 | 23 | 0 | 0.0 | 1.6 | 0.00 | 0.03 | 0.00 | 56 | 1013.4 |
| 20260510145557 | 23 | 0 | 0.0 | 0.0 | 0.00 | 0.03 | 0.00 | 57 | 1013.5 |
| 20260510145057 | 23 | 0 | 0.0 | 0.0 | 0.00 | 0.03 | 0.00 | 58 | 1013.3 |
| 20260510144609 | 22 | 0 | 0.0 | 0.0 | 0.00 | 0.03 | 0.00 | 58 | 1013.3 |
| 20260510144058 | 22 | 0 | 0.0 | 0.0 | 0.00 | 0.03 | 0.00 | 57 | 1013.2 |
| 20260510143557 | 22 | 0 | 0.0 | 0.0 | 0.00 | 0.03 | 0.00 | 56 | 1013.2 |
| 20260510143109 | 22 | 0 | 0.0 | 0.0 | 0.00 | 0.03 | 0.00 | 56 | 1013.1 |
| 20260510142557 | 22 | 0 | 0.0 | 0.0 | 0.00 | 0.03 | 0.00 | 56 | 1013.1 |
| 20260510142058 | 21 | 0 | 0.0 | 0.0 | 0.00 | 0.03 | 0.00 | 55 | 1013.1 |
| 20260510141556 | 21 | 0 | 0.0 | 0.0 | 0.00 | 0.03 | 0.00 | 49 | 1013.1 |
| 20260510141058 | 21 | 0 | 0.0 | 0.0 | 0.00 | 0.03 | 0.00 | 46 | 1013.3 |
| 20260510140558 | 21 | 0 | 0.0 | 0.0 | 0.00 | 0.03 | 0.00 | 48 | 1013.3 |
| 20260510140056 | 21 | 0 | 0.0 | 0.0 | 0.00 | 0.03 | 0.00 | 46 | 1013.4 |
| 20260510135557 | 20 | 0 | 0.0 | 0.0 | 0.00 | 0.03 | 0.00 | 49 | 1013.3 |
| 20260510135059 | 20 | 0 | 0.0 | 0.0 | 0.00 | 0.03 | 0.00 | 42 | 1013.4 |
| 20260510134606 | 20 | 0 | 0.0 | 0.0 | 0.00 | 0.03 | 0.00 | 29 | 1013.4 |
| 20260510134056 | 20 | 0 | 0.0 | 0.0 | 0.00 | 0.03 | 0.00 | 29 | 1013.3 |
| 20260510133557 | 20 | 0 | 0.0 | 0.0 | 0.00 | 0.03 | 0.00 | 26 | 1013.3 |
| 20260510133058 | 19 | 0 | 0.0 | 0.0 | 0.00 | 0.03 | 0.00 | 5 | 1013.2 |
| 20260510132557 | 19 | 0 | 0.0 | 0.0 | 0.00 | 0.03 | 0.00 | 100 | 1013.4 |
| 20260510132059 | 18 | 0 | 0.0 | 0.0 | 0.00 | 0.03 | 0.00 | 100 | 1013.2 |
| 20260510131558 | 18 | 0 | 0.0 | 0.0 | 0.00 | 0.03 | 0.00 | 100 | 1013.3 |
| 20260510131057 | 17 | 0 | 0.0 | 0.0 | 0.00 | 0.03 | 0.00 | 100 | 1013.3 |
| 20260510130557 | 17 | 0 | 0.0 | 0.0 | 0.00 | 0.03 | 0.00 | 100 | 1013.5 |
| 20260510130117 | 17 | 0 | 0.0 | 0.0 | 0.00 | 0.03 | 0.00 | 100 | 1013.5 |
| 20260510125556 | 16 | 0 | 0.0 | 0.0 | 0.00 | 0.03 | 0.00 | 100 | 1013.6 |
| 20260510125058 | 16 | 0 | 0.0 | 0.0 | 0.00 | 0.03 | 0.00 | 100 | 1013.7 |
| 20260510124603 | 15 | 0 | 0.0 | 0.0 | 0.00 | 0.03 | 0.00 | 100 | 1013.6 |
| 20260510124058 | 15 | 0 | 0.0 | 0.0 | 0.00 | 0.03 | 0.00 | 100 | 1013.7 |
| 20260510123558 | 15 | 0 | 0.0 | 0.0 | 0.00 | 0.03 | 0.00 | 100 | 1013.6 |
| 20260510123100 | 15 | 0 | 0.0 | 0.0 | 0.00 | 0.03 | 0.00 | 100 | 1013.7 |
| 20260510122558 | 14 | 0 | 0.0 | 0.0 | 0.00 | 0.03 | 0.00 | 100 | 1013.7 |
| 20260510122057 | 14 | 0 | 0.0 | 0.0 | 0.00 | 0.03 | 0.00 | 100 | 1013.7 |
| 20260510121557 | 14 | 0 | 0.0 | 0.0 | 0.00 | 0.03 | 0.00 | 100 | 1013.6 |
| 20260510121058 | 14 | 0 | 0.0 | 0.0 | 0.00 | 0.03 | 0.00 | 100 | 1013.6 |
| 20260510120558 | 13 | 0 | 0.0 | 0.0 | 0.00 | 0.03 | 0.00 | 100 | 1013.5 |
| 20260510120057 | 13 | 0 | 0.0 | 0.0 | 0.00 | 0.03 | 0.00 | 100 | 1013.4 |
| 20260510115557 | 13 | 0 | 0.0 | 0.0 | 0.00 | 0.03 | 0.00 | 100 | 1013.5 |
| 20260510115057 | 12 | 0 | 0.0 | 0.0 | 0.00 | 0.03 | 0.00 | 100 | 1013.4 |
| 20260510114557 | 12 | 0 | 0.0 | 0.0 | 0.00 | 0.03 | 0.00 | 100 | 1013.4 |
| 20260510114057 | 11 | 0 | 0.0 | 0.0 | 0.00 | 0.03 | 0.00 | 100 | 1013.4 |
| 20260510113557 | 11 | 0 | 0.0 | 0.0 | 0.00 | 0.03 | 0.00 | 100 | 1013.2 |
| 20260510113107 | 11 | 0 | 0.0 | 0.0 | 0.00 | 0.03 | 0.00 | 100 | 1013.0 |
| 20260510112559 | 10 | 0 | 0.0 | 0.0 | 0.00 | 0.03 | 0.00 | 100 | 1013.0 |
| 20260510112058 | 10 | 0 | 0.0 | 0.0 | 0.00 | 0.03 | 0.00 | 100 | 1012.9 |
| 20260510111555 | 10 | 0 | 0.0 | 0.0 | 0.00 | 0.03 | 0.00 | 100 | 1012.9 |
| 20260510111057 | 10 | 0 | 0.0 | 0.0 | 0.00 | 0.03 | 0.00 | 100 | 1012.7 |
| 20260510110600 | 10 | 0 | 0.0 | 0.0 | 0.00 | 0.03 | 0.00 | 100 | 1012.9 |
| 20260510110059 | 10 | 0 | 0.0 | 0.0 | 0.00 | 0.03 | 0.00 | 100 | 1012.8 |
| 20260510105559 | 10 | 0 | 0.0 | 0.0 | 0.00 | 0.03 | 0.00 | 100 | 1012.7 |
| 20260510105059 | 9 | 0 | 0.0 | 0.0 | 0.00 | 0.03 | 0.00 | 100 | 1012.6 |
| 20260510104558 | 9 | 0 | 0.0 | 0.0 | 0.00 | 0.03 | 0.00 | 100 | 1012.4 |
| 20260510104057 | 9 | 0 | 0.0 | 0.0 | 0.00 | 0.03 | 0.00 | 100 | 1012.3 |
| 20260510103559 | 9 | 0 | 0.0 | 0.0 | 0.00 | 0.03 | 0.00 | 100 | 1012.1 |
| 20260510103056 | 9 | 0 | 0.0 | 0.0 | 0.00 | 0.03 | 0.00 | 100 | 1012.0 |
| 20260510102557 | 9 | 0 | 0.0 | 0.0 | 0.00 | 0.03 | 0.00 | 100 | 1011.9 |
| 20260510102058 | 9 | 0 | 0.0 | 0.0 | 0.00 | 0.03 | 0.00 | 100 | 1011.9 |
| 20260510101600 | 9 | 0 | 0.0 | 0.0 | 0.00 | 0.03 | 0.00 | 100 | 1011.9 |
| 20260510101057 | 9 | 0 | 0.0 | 0.0 | 0.00 | 0.03 | 0.00 | 100 | 1011.8 |
| 20260510100557 | 10 | 0 | 0.0 | 0.0 | 0.00 | 0.03 | 0.00 | 100 | 1011.7 |
| 20260510100104 | 10 | 0 | 0.0 | 0.0 | 0.00 | 0.03 | 0.00 | 100 | 1011.8 |
| 20260510095600 | 10 | 0 | 0.0 | 0.0 | 0.00 | 0.03 | 0.00 | 100 | 1011.9 |
| 20260510095058 | 10 | 0 | 0.0 | 0.0 | 0.00 | 0.03 | 0.00 | 100 | 1011.8 |
| 20260510094556 | 10 | 0 | 0.0 | 0.0 | 0.00 | 0.03 | 0.00 | 100 | 1011.9 |
| 20260510094057 | 10 | 0 | 0.0 | 0.0 | 0.00 | 0.03 | 0.00 | 100 | 1012.0 |
| 20260510093558 | 10 | 0 | 0.0 | 0.0 | 0.00 | 0.03 | 0.00 | 100 | 1012.1 |
| 20260510093100 | 10 | 0 | 0.0 | 0.0 | 0.00 | 0.03 | 0.00 | 100 | 1011.9 |
| 20260510092601 | 10 | 0 | 0.0 | 0.0 | 0.00 | 0.03 | 0.00 | 100 | 1011.9 |
| 20260510092100 | 10 | 0 | 0.0 | 0.0 | 0.00 | 0.03 | 0.00 | 100 | 1011.8 |
| 20260510091600 | 10 | 0 | 0.0 | 0.0 | 0.00 | 0.03 | 0.00 | 100 | 1011.8 |
| 20260510091057 | 10 | 0 | 0.0 | 0.0 | 0.00 | 0.03 | 0.00 | 100 | 1011.8 |
| 20260510090558 | 10 | 0 | 0.0 | 0.0 | 0.00 | 0.03 | 0.00 | 100 | 1011.8 |
| 20260510090110 | 10 | 0 | 0.0 | 0.0 | 0.00 | 0.03 | 0.00 | 100 | 1011.7 |
| 20260510085559 | 10 | 0 | 0.0 | 0.0 | 0.00 | 0.03 | 0.00 | 100 | 1011.7 |
| 20260510085059 | 10 | 0 | 0.0 | 0.0 | 0.00 | 0.03 | 0.00 | 100 | 1011.7 |
| 20260510084604 | 10 | 0 | 0.0 | 0.0 | 0.00 | 0.03 | 0.00 | 100 | 1011.7 |
| 20260510084057 | 10 | 0 | 0.0 | 0.0 | 0.00 | 0.03 | 0.00 | 100 | 1011.4 |
| 20260510083556 | 10 | 0 | 0.0 | 0.0 | 0.00 | 0.03 | 0.00 | 100 | 1011.4 |
| 20260510083059 | 10 | 0 | 0.0 | 0.0 | 0.00 | 0.03 | 0.00 | 100 | 1011.4 |
| 20260510082556 | 10 | 0 | 0.0 | 0.0 | 0.00 | 0.03 | 0.00 | 100 | 1011.3 |
| 20260510082057 | 10 | 0 | 0.0 | 0.0 | 0.00 | 0.03 | 0.00 | 100 | 1011.3 |
| 20260510081557 | 10 | 0 | 0.0 | 0.0 | 0.00 | 0.03 | 0.00 | 100 | 1011.2 |
| 20260510081058 | 10 | 0 | 0.0 | 0.0 | 0.00 | 0.03 | 0.00 | 100 | 1011.1 |
| 20260510080556 | 10 | 0 | 0.0 | 0.0 | 0.00 | 0.03 | 0.00 | 100 | 1011.1 |
| 20260510080103 | 10 | 0 | 0.0 | 0.0 | 0.00 | 0.03 | 0.00 | 100 | 1011.0 |
| 20260510075601 | 10 | 0 | 0.0 | 0.0 | 0.00 | 0.03 | 0.00 | 100 | 1010.9 |
| 20260510075057 | 10 | 0 | 0.0 | 0.0 | 0.00 | 0.03 | 0.00 | 100 | 1010.8 |
| 20260510074558 | 10 | 0 | 0.0 | 0.0 | 0.00 | 0.03 | 0.00 | 100 | 1010.7 |
| 20260510074057 | 10 | 0 | 0.0 | 0.0 | 0.00 | 0.03 | 0.00 | 100 | 1010.7 |
| 20260510073557 | 10 | 0 | 0.0 | 0.0 | 0.00 | 0.03 | 0.00 | 100 | 1010.7 |
| 20260510073115 | 10 | 0 | 0.0 | 0.0 | 0.00 | 0.03 | 0.00 | 100 | 1010.7 |
| 20260510072557 | 10 | 0 | 0.0 | 0.0 | 0.00 | 0.03 | 0.00 | 100 | 1010.7 |
| 20260510072056 | 10 | 0 | 0.0 | 0.0 | 0.00 | 0.03 | 0.00 | 100 | 1010.7 |
| 20260510071558 | 10 | 0 | 0.0 | 0.0 | 0.00 | 0.03 | 0.00 | 100 | 1010.7 |
| 20260510071057 | 11 | 0 | 0.0 | 0.0 | 0.00 | 0.03 | 0.00 | 100 | 1010.7 |
| 20260510070557 | 11 | 0 | 0.0 | 0.0 | 0.00 | 0.03 | 0.00 | 100 | 1010.7 |
| 20260510065557 | 11 | 0 | 0.0 | 0.0 | 0.00 | 0.03 | 0.00 | 100 | 1010.5 |
| 20260510065057 | 11 | 0 | 0.0 | 0.0 | 0.00 | 0.03 | 0.00 | 100 | 1010.3 |
| 20260510064634 | 11 | 0 | 0.0 | 0.0 | 0.00 | 0.03 | 0.00 | 100 | 1010.3 |
| 20260510064057 | 11 | 0 | 0.0 | 0.0 | 0.00 | 0.03 | 0.00 | 100 | 1010.4 |
| 20260510063558 | 11 | 0 | 0.0 | 0.0 | 0.00 | 0.03 | 0.00 | 100 | 1010.3 |
| 20260510063056 | 11 | 0 | 0.0 | 0.0 | 0.00 | 0.03 | 0.00 | 100 | 1010.4 |
| 20260510062557 | 11 | 0 | 0.0 | 0.0 | 0.00 | 0.03 | 0.00 | 100 | 1010.3 |
| 20260510062054 | 11 | 0 | 0.0 | 0.0 | 0.00 | 0.03 | 0.00 | 100 | 1010.4 |
| 20260510061558 | 11 | 0 | 0.0 | 0.0 | 0.00 | 0.03 | 0.00 | 100 | 1010.4 |
| 20260510061057 | 11 | 0 | 0.0 | 0.0 | 0.00 | 0.03 | 0.00 | 100 | 1010.5 |
| 20260510060602 | 11 | 0 | 0.0 | 0.0 | 0.00 | 0.03 | 0.00 | 100 | 1010.4 |
| 20260510060058 | 11 | 0 | 0.0 | 0.0 | 0.00 | 0.03 | 0.00 | 100 | 1010.5 |
| 20260510055557 | 11 | 0 | 0.0 | 0.0 | 0.00 | 0.03 | 0.00 | 100 | 1010.5 |
| 20260510055057 | 11 | 0 | 0.0 | 0.0 | 0.00 | 0.03 | 0.00 | 100 | 1010.6 |
| 20260510054601 | 11 | 0 | 0.0 | 0.0 | 0.00 | 0.03 | 0.00 | 100 | 1010.6 |
| 20260510054057 | 11 | 0 | 0.0 | 0.0 | 0.00 | 0.03 | 0.00 | 100 | 1010.7 |
| 20260510053557 | 11 | 0 | 0.0 | 0.0 | 0.00 | 0.03 | 0.00 | 100 | 1010.7 |
| 20260510053058 | 11 | 0 | 0.0 | 0.0 | 0.00 | 0.03 | 0.00 | 100 | 1010.6 |
| 20260510052557 | 12 | 0 | 0.0 | 0.0 | 0.00 | 0.03 | 0.00 | 100 | 1010.5 |
| 20260510052058 | 12 | 0 | 0.0 | 0.0 | 0.00 | 0.03 | 0.00 | 100 | 1010.6 |
| 20260510051558 | 12 | 0 | 0.0 | 0.0 | 0.00 | 0.03 | 0.00 | 100 | 1010.6 |
| 20260510051056 | 12 | 0 | 0.0 | 0.0 | 0.00 | 0.03 | 0.00 | 100 | 1010.6 |
| 20260510050557 | 12 | 0 | 0.0 | 0.0 | 0.00 | 0.03 | 0.00 | 100 | 1010.6 |
| 20260510050058 | 12 | 0 | 0.0 | 0.0 | 0.00 | 0.03 | 0.00 | 100 | 1010.7 |
| 20260510045601 | 12 | 0 | 0.0 | 0.0 | 0.00 | 0.03 | 0.00 | 100 | 1010.8 |
| 20260510045056 | 12 | 0 | 0.0 | 0.0 | 0.00 | 0.03 | 0.00 | 100 | 1010.7 |
| 20260510044557 | 12 | 0 | 0.0 | 0.0 | 0.00 | 0.03 | 0.00 | 100 | 1010.7 |
| 20260510044057 | 12 | 0 | 0.0 | 0.0 | 0.00 | 0.03 | 0.00 | 100 | 1010.7 |
| 20260510043555 | 12 | 0 | 0.0 | 0.0 | 0.00 | 0.03 | 0.00 | 100 | 1010.8 |
| 20260510043058 | 12 | 0 | 0.0 | 0.0 | 0.00 | 0.03 | 0.00 | 100 | 1010.8 |
| 20260510042559 | 12 | 0 | 0.0 | 0.0 | 0.00 | 0.03 | 0.00 | 100 | 1010.7 |
| 20260510042057 | 12 | 0 | 0.0 | 0.0 | 0.00 | 0.03 | 0.00 | 100 | 1010.7 |
| 20260510041558 | 12 | 0 | 0.0 | 0.0 | 0.00 | 0.03 | 0.00 | 100 | 1010.7 |
| 20260510041055 | 13 | 0 | 0.0 | 0.0 | 0.00 | 0.03 | 0.00 | 100 | 1010.5 |
| 20260510040557 | 13 | 0 | 0.0 | 0.0 | 0.00 | 0.03 | 0.00 | 100 | 1010.6 |
| 20260510040101 | 13 | 0 | 0.0 | 0.0 | 0.00 | 0.03 | 0.00 | 100 | 1010.6 |
| 20260510035556 | 13 | 0 | 0.0 | 0.0 | 0.00 | 0.03 | 0.03 | 100 | 1010.5 |
| 20260510035056 | 13 | 0 | 0.0 | 0.0 | 0.00 | 0.03 | 0.03 | 100 | 1010.6 |
| 20260510034616 | 13 | 0 | 0.0 | 0.0 | 0.00 | 0.03 | 0.03 | 100 | 1010.6 |
| 20260510034056 | 13 | 0 | 0.0 | 0.0 | 0.00 | 0.03 | 0.03 | 100 | 1010.6 |
| 20260510033558 | 13 | 0 | 0.0 | 0.0 | 0.00 | 0.03 | 0.03 | 100 | 1010.6 |
| 20260510033105 | 13 | 0 | 0.0 | 0.0 | 0.00 | 0.03 | 0.03 | 100 | 1010.4 |
| 20260510032557 | 13 | 0 | 0.0 | 0.0 | 0.00 | 0.03 | 0.03 | 100 | 1010.5 |
| 20260510032057 | 13 | 0 | 0.0 | 0.0 | 0.00 | 0.03 | 0.03 | 100 | 1010.6 |
| 20260510031558 | 14 | 0 | 0.0 | 0.0 | 0.00 | 0.03 | 0.03 | 100 | 1010.5 |
| 20260510031057 | 14 | 0 | 0.0 | 0.0 | 0.00 | 0.03 | 0.03 | 100 | 1010.3 |
| 20260510030556 | 14 | 0 | 0.0 | 0.0 | 0.00 | 0.03 | 0.03 | 100 | 1010.4 |
| 20260510030059 | 14 | 0 | 0.0 | 0.0 | 0.00 | 0.03 | 0.03 | 100 | 1010.3 |
| 20260510025557 | 15 | 0 | 0.0 | 0.0 | 0.00 | 0.03 | 0.03 | 100 | 1010.2 |
| 20260510025057 | 15 | 0 | 0.0 | 0.0 | 0.00 | 0.03 | 0.03 | 100 | 1010.2 |
| 20260510024558 | 15 | 0 | 0.0 | 0.0 | 0.00 | 0.03 | 0.03 | 2 | 1010.3 |
| 20260510024058 | 15 | 0 | 0.0 | 0.0 | 0.00 | 0.03 | 0.03 | 7 | 1010.2 |
| 20260510023557 | 15 | 0 | 0.0 | 0.0 | 0.00 | 0.03 | 0.03 | 8 | 1010.2 |
| 20260510023057 | 15 | 0 | 0.0 | 0.0 | 0.00 | 0.03 | 0.03 | 10 | 1010.2 |
| 20260510022603 | 15 | 0 | 0.0 | 0.0 | 0.00 | 0.03 | 0.03 | 10 | 1010.2 |
| 20260510022055 | 15 | 0 | 0.0 | 0.0 | 0.00 | 0.03 | 0.03 | 12 | 1010.2 |
| 20260510021604 | 16 | 0 | 0.0 | 0.0 | 0.00 | 0.03 | 0.03 | 14 | 1010.2 |
| 20260510021058 | 16 | 0 | 0.0 | 0.0 | 0.00 | 0.03 | 0.03 | 13 | 1010.2 |
| 20260510020556 | 16 | 0 | 0.0 | 0.0 | 0.00 | 0.03 | 0.03 | 12 | 1010.2 |
| 20260510020058 | 16 | 0 | 0.0 | 0.0 | 0.00 | 0.03 | 0.03 | 10 | 1010.2 |
| 20260510015554 | 16 | 0 | 0.0 | 0.0 | 0.00 | 0.03 | 0.03 | 8 | 1010.1 |
| 20260510015054 | 16 | 0 | 0.0 | 0.0 | 0.00 | 0.03 | 0.03 | 6 | 1010.1 |
| 20260510014602 | 16 | 0 | 0.0 | 0.0 | 0.00 | 0.03 | 0.03 | 8 | 1010.0 |
| 20260510014057 | 16 | 0 | 0.0 | 0.0 | 0.00 | 0.03 | 0.03 | 9 | 1010.0 |
| 20260510013600 | 16 | 0 | 0.0 | 0.0 | 0.00 | 0.03 | 0.03 | 13 | 1010.0 |
| 20260510013117 | 16 | 0 | 0.0 | 0.0 | 0.00 | 0.03 | 0.03 | 15 | 1010.0 |
| 20260510012555 | 16 | 0 | 0.0 | 0.0 | 0.00 | 0.03 | 0.03 | 19 | 1009.9 |
| 20260510012057 | 16 | 0 | 0.0 | 0.0 | 0.00 | 0.03 | 0.03 | 23 | 1009.9 |
| 20260510011558 | 16 | 0 | 0.0 | 0.0 | 0.00 | 0.03 | 0.03 | 25 | 1009.8 |
| 20260510011056 | 16 | 0 | 0.0 | 0.0 | 0.00 | 0.03 | 0.03 | 26 | 1009.7 |
| 20260510010556 | 16 | 0 | 0.0 | 0.0 | 0.00 | 0.03 | 0.03 | 31 | 1009.7 |
| 20260510010056 | 16 | 0 | 0.0 | 0.0 | 0.00 | 0.03 | 0.03 | 36 | 1009.7 |
| 20260510005557 | 17 | 0 | 0.0 | 0.0 | 0.00 | 0.03 | 0.03 | 37 | 1009.6 |
| 20260510005054 | 17 | 0 | 0.0 | 0.0 | 0.00 | 0.03 | 0.03 | 42 | 1009.6 |
| 20260510004559 | 17 | 0 | 0.0 | 0.0 | 0.00 | 0.03 | 0.03 | 46 | 1009.6 |
| 20260510004057 | 17 | 0 | 0.0 | 0.0 | 0.00 | 0.03 | 0.03 | 48 | 1009.6 |
| 20260510003559 | 17 | 0 | 0.0 | 0.0 | 0.00 | 0.03 | 0.03 | 49 | 1009.4 |
| 20260510003106 | 17 | 0 | 0.0 | 0.0 | 0.00 | 0.03 | 0.03 | 52 | 1009.4 |
| 20260510002601 | 18 | 0 | 0.0 | 0.0 | 0.00 | 0.03 | 0.03 | 53 | 1009.4 |
| 20260510002100 | 18 | 0 | 0.0 | 0.0 | 0.00 | 0.03 | 0.03 | 53 | 1009.4 |
| 20260510001555 | 18 | 0 | 0.0 | 0.0 | 0.00 | 0.03 | 0.03 | 56 | 1009.4 |
| 20260510001058 | 18 | 0 | 0.0 | 0.0 | 0.00 | 0.03 | 0.03 | 58 | 1009.4 |
| 20260510000558 | 18 | 0 | 0.0 | 0.0 | 0.00 | 0.03 | 0.03 | 59 | 1009.3 |
| 20260510000125 | 18 | 0 | 0.0 | 1.6 | 0.00 | 0.03 | 0.03 | 60 | 1009.3 |
| 20260509235558 | 19 | 0 | 0.0 | 1.6 | 0.00 | 0.03 | 0.03 | 61 | 1009.2 |
| 20260509235058 | 19 | 0 | 0.0 | 1.6 | 0.00 | 0.03 | 0.03 | 61 | 1009.2 |
| 20260509234557 | 20 | 0 | 0.0 | 0.0 | 0.00 | 0.03 | 0.03 | 61 | 1009.0 |
| 20260509234058 | 20 | 0 | 0.0 | 0.0 | 0.00 | 0.03 | 0.03 | 61 | 1008.9 |
| 20260509233558 | 20 | 0 | 0.0 | 0.0 | 0.00 | 0.03 | 0.03 | 61 | 1009.0 |
| 20260509233058 | 20 | 0 | 0.0 | 0.0 | 0.00 | 0.03 | 0.03 | 61 | 1008.9 |
| 20260509232559 | 20 | 0 | 0.0 | 0.0 | 0.00 | 0.03 | 0.03 | 61 | 1008.9 |
| 20260509232059 | 20 | 0 | 0.0 | 0.0 | 0.00 | 0.03 | 0.03 | 61 | 1008.9 |
| 20260509231608 | 20 | 0 | 0.0 | 0.0 | 0.00 | 0.03 | 0.03 | 61 | 1008.8 |
| 20260509231057 | 20 | 0 | 0.0 | 0.0 | 0.00 | 0.03 | 0.03 | 61 | 1008.8 |
| 20260509230557 | 20 | 0 | 0.0 | 0.0 | 0.00 | 0.03 | 0.03 | 62 | 1008.9 |
| 20260509230105 | 20 | 0 | 0.0 | 0.0 | 0.00 | 0.03 | 0.03 | 62 | 1008.8 |
| 20260509225559 | 20 | 0 | 0.0 | 0.0 | 0.00 | 0.03 | 0.03 | 61 | 1008.8 |
| 20260509225057 | 20 | 0 | 0.0 | 0.0 | 0.00 | 0.03 | 0.03 | 61 | 1008.7 |
| 20260509224557 | 20 | 0 | 0.0 | 0.0 | 0.00 | 0.03 | 0.03 | 61 | 1008.8 |
| 20260509224057 | 21 | 0 | 0.0 | 0.0 | 0.00 | 0.03 | 0.03 | 61 | 1008.9 |
| 20260509223557 | 21 | 0 | 0.0 | 0.0 | 0.00 | 0.03 | 0.03 | 61 | 1008.9 |
| 20260509223105 | 21 | 0 | 0.0 | 0.0 | 0.00 | 0.03 | 0.03 | 61 | 1008.8 |
| 20260509222557 | 21 | 0 | 0.0 | 0.0 | 0.00 | 0.03 | 0.03 | 61 | 1008.9 |
| 20260509222057 | 21 | 0 | 0.0 | 0.0 | 0.00 | 0.03 | 0.03 | 61 | 1008.8 |
| 20260509221627 | 21 | 0 | 0.0 | 0.0 | 0.00 | 0.03 | 0.03 | 60 | 1008.7 |
| 20260509221057 | 21 | 0 | 0.0 | 0.0 | 0.00 | 0.03 | 0.03 | 60 | 1008.9 |
| 20260509220557 | 21 | 0 | 0.0 | 0.0 | 0.00 | 0.03 | 0.03 | 60 | 1008.7 |
| 20260509215558 | 21 | 0 | 0.0 | 0.0 | 0.00 | 0.03 | 0.03 | 60 | 1008.8 |
| 20260509215100 | 21 | 0 | 0.0 | 0.0 | 0.00 | 0.03 | 0.03 | 60 | 1009.0 |
| 20260509214604 | 21 | 0 | 0.0 | 0.0 | 0.00 | 0.03 | 0.03 | 60 | 1009.0 |
| 20260509214058 | 21 | 0 | 0.0 | 0.0 | 0.00 | 0.03 | 0.03 | 60 | 1009.1 |
| 20260509213557 | 21 | 0 | 0.0 | 0.0 | 0.00 | 0.03 | 0.03 | 60 | 1009.0 |
| 20260509213101 | 21 | 0 | 0.0 | 0.0 | 0.00 | 0.03 | 0.03 | 61 | 1009.0 |
| 20260509212559 | 21 | 0 | 0.0 | 0.0 | 0.00 | 0.03 | 0.03 | 60 | 1009.0 |
| 20260509212057 | 21 | 0 | 0.0 | 0.0 | 0.00 | 0.03 | 0.03 | 60 | 1008.9 |
| 20260509211602 | 21 | 0 | 0.0 | 1.6 | 0.00 | 0.03 | 0.03 | 61 | 1009.0 |
| 20260509211057 | 21 | 0 | 0.0 | 1.6 | 0.00 | 0.03 | 0.03 | 60 | 1008.9 |
| 20260509210557 | 21 | 0 | 0.0 | 1.6 | 0.00 | 0.03 | 0.03 | 60 | 1008.9 |
| 20260509210100 | 21 | 0 | 0.0 | 1.6 | 0.00 | 0.03 | 0.03 | 60 | 1008.9 |
| 20260509205556 | 21 | 0 | 0.0 | 1.6 | 0.00 | 0.03 | 0.03 | 60 | 1008.8 |
| 20260509205058 | 20 | 0 | 0.0 | 1.6 | 0.00 | 0.03 | 0.03 | 60 | 1008.9 |
| 20260509204555 | 20 | 0 | 0.0 | 0.0 | 0.00 | 0.03 | 0.03 | 60 | 1008.7 |
| 20260509204057 | 20 | 0 | 0.0 | 1.6 | 0.00 | 0.03 | 0.03 | 59 | 1008.7 |
| 20260509203601 | 20 | 0 | 0.0 | 1.6 | 0.00 | 0.03 | 0.03 | 59 | 1008.6 |
| 20260509203056 | 20 | 0 | 0.0 | 1.6 | 0.00 | 0.03 | 0.03 | 59 | 1008.7 |
| 20260509202557 | 20 | 0 | 0.0 | 1.6 | 0.00 | 0.03 | 0.03 | 58 | 1008.9 |
| 20260509202055 | 20 | 0 | 0.0 | 1.6 | 0.00 | 0.03 | 0.03 | 58 | 1008.9 |
| 20260509201558 | 19 | 0 | 0.0 | 1.6 | 0.00 | 0.03 | 0.03 | 58 | 1009.1 |
| 20260509201102 | 19 | 0 | 0.0 | 1.6 | 0.00 | 0.03 | 0.03 | 59 | 1009.1 |
| 20260509200556 | 19 | 0 | 0.0 | 1.6 | 0.00 | 0.03 | 0.03 | 59 | 1009.2 |
| 20260509200109 | 19 | 0 | 0.0 | 1.6 | 0.00 | 0.03 | 0.03 | 56 | 1009.3 |
| 20260509195600 | 19 | 0 | 0.0 | 1.6 | 0.03 | 0.03 | 0.03 | 49 | 1009.3 |
| 20260509195056 | 19 | 0 | 0.0 | 1.6 | 0.03 | 0.03 | 0.03 | 48 | 1009.4 |
| 20260509194558 | 18 | 0 | 0.0 | 1.6 | 0.03 | 0.03 | 0.03 | 45 | 1009.4 |
| 20260509194054 | 18 | 0 | 0.0 | 1.6 | 0.03 | 0.03 | 0.03 | 42 | 1009.6 |
| 20260509193557 | 18 | 0 | 0.0 | 1.6 | 0.03 | 0.03 | 0.03 | 41 | 1009.6 |
| 20260509193058 | 18 | 0 | 0.0 | 1.6 | 0.03 | 0.03 | 0.03 | 28 | 1009.7 |
| 20260509192556 | 18 | 0 | 0.0 | 0.0 | 0.03 | 0.03 | 0.03 | 24 | 1009.7 |
| 20260509192100 | 18 | 0 | 0.0 | 0.0 | 0.03 | 0.03 | 0.03 | 16 | 1009.8 |
| 20260509191601 | 18 | 0 | 0.0 | 0.0 | 0.03 | 0.03 | 0.03 | 24 | 1009.7 |
| 20260509191057 | 18 | 0 | 0.0 | 0.0 | 0.03 | 0.03 | 0.03 | 22 | 1009.8 |